Mazatlan Airport, Mexico

8:38 PM MDT on June 22, 2017 (GMT -0600)
Gen Rafael Buelna International

Weather History for MMMZ - March, 2013

Change the Weather History Date:

Sunday, March 17, 2013

  Actual Average Record
Temperature  
Mean Temperature 66 °F -  
Max Temperature 80 °F 79 °F 89 °F (1997)
Min Temperature 53 °F 52 °F 50 °F (1998)
Cooling Degree Days 2    
Growing Degree Days 16 (Base 50)    
Moisture  
Dew Point 52 °F    
Average Humidity 65    
Maximum Humidity 88    
Minimum Humidity 39    
Precipitation  
Precipitation 0.00 in - - ()
Sea Level Pressure  
Sea Level Pressure 29.95 in    
Wind  
Wind Speed 7 mph ()    
Max Wind Speed 12 mph    
Max Gust Speed -    
Visibility 12.5 miles    
Events      
Averages and records for this station are not official NWS values.
T = Trace of Precipitation, MM = Missing Value Source: Averaged Metar Reports

Daily Weather History Graph

Daily Weather History Graph

Search for Another Location

Airport or City:

Trip Planner

Search our weather history database for the weather conditions in past years. The results will help you decide how hot, cold, wet, or windy it might be!

Date:

Astronomy

Mar. 17, 2013 Rise Set
Actual Time 6:11 AM MST 6:15 PM MST
Civil Twilight 5:49 AM MST 6:37 PM MST
Nautical Twilight 5:23 AM MST 7:03 PM MST
Astronomical Twilight 4:56 AM MST 7:30 PM MST
Moon 10:03 AM MST (3/17) 11:40 PM MST (3/17)
Length of Visible Light 12h 48m
Length of Day
12h 03m
Waxing Crescent, 32% of the Moon is Illuminated
Mar 17
Waxing Crescent
Mar 19
First Quarter
Mar 27
Full
Apr 2
Last Quarter
Apr 10
New

Hourly Weather History & Observations

Time (MST) Temp. Heat Index Dew Point Humidity Pressure Visibility Wind Dir Wind Speed Gust Speed Precip Events Conditions
12:43 AM 55.4 °F - 48.2 °F 77% 29.97 in 10.0 mi NNE 8.1 mph - N/A   Clear
1:46 AM 55.4 °F - 46.4 °F 72% 29.96 in 10.0 mi North 8.1 mph - N/A   Clear
2:41 AM 55.4 °F - 46.4 °F 72% 29.96 in 10.0 mi North 8.1 mph - N/A   Clear
3:42 AM 53.6 °F - 46.4 °F 77% 29.95 in 10.0 mi NNE 8.1 mph - N/A   Clear
4:44 AM 53.6 °F - 46.4 °F 77% 29.95 in 10.0 mi NNE 8.1 mph - N/A   Clear
5:51 AM 53.6 °F - 46.4 °F 77% 29.97 in 12.0 mi NNE 8.1 mph - N/A   Clear
6:45 AM 53.6 °F - 46.4 °F 77% 29.98 in 15.0 mi NNE 9.2 mph - N/A   Clear
7:42 AM 60.8 °F - 48.2 °F 63% 29.98 in 15.0 mi North 8.1 mph - N/A   Clear
8:43 AM 69.8 °F - 51.8 °F 53% 29.99 in 15.0 mi ESE 6.9 mph - N/A   Clear
9:43 AM 69.8 °F - 51.8 °F 53% 29.99 in 15.0 mi ESE 6.9 mph - N/A   Clear
10:50 AM 78.8 °F - 51.8 °F 39% 29.97 in 15.0 mi South 9.2 mph - N/A   Clear
11:41 AM 78.8 °F - 51.8 °F 39% 29.97 in 15.0 mi SSE 11.5 mph - N/A   Clear
12:48 PM 80.6 °F 80.3 °F 53.6 °F 39% 29.94 in 15.0 mi SSW 10.4 mph - N/A   Clear
1:40 PM 78.8 °F - 55.4 °F 44% 29.92 in 15.0 mi SW 11.5 mph - N/A   Clear
2:44 PM 77.0 °F - 57.2 °F 50% 29.90 in 15.0 mi SSW 10.4 mph - N/A   Clear
3:42 PM 75.2 °F - 57.2 °F 53% 29.90 in 15.0 mi SW 9.2 mph - N/A   Clear
4:41 PM 75.2 °F - 59.0 °F 57% 29.89 in 15.0 mi WSW 11.5 mph - N/A   Partly Cloudy
5:43 PM 71.6 °F - 59.0 °F 64% 29.90 in 12.0 mi SSW 8.1 mph - N/A   Partly Cloudy
6:44 PM 66.2 °F - 57.2 °F 73% 29.92 in 10.0 mi South 6.9 mph - N/A   Partly Cloudy
7:44 PM 64.4 °F - 57.2 °F 77% 29.92 in 10.0 mi Calm Calm - N/A   Clear
8:43 PM 62.6 °F - 57.2 °F 82% 29.94 in 10.0 mi Calm Calm - N/A   Clear
9:52 PM 60.8 °F - 55.4 °F 82% 29.96 in 10.0 mi North 8.1 mph - N/A   Clear
10:44 PM 60.8 °F - 53.6 °F 77% 29.97 in 10.0 mi North 6.9 mph - N/A   Clear
11:42 PM 59.0 °F - 55.4 °F 88% 29.92 in 10.0 mi North 5.8 mph - N/A   Clear